[[{"header":{"parameterUnit":"m.s-1","parameterCategory":1,"la1":30.2991,"la2":30.254,"lo1":-89.0895,"lo2":-89.0444,"dy":0.0017,"dx":0.0017,"nx":28,"ny":28,"refTime":"2023-08-14T21:00:00:Z","depth":0,"parameterNumber":2,"parameterNumberName":"U-component_of_WINDS"},"data":[0,0,0,0,0,0,0,0,0,0,0,0,0,0,0,0,0,0,0,0,0,0,0,0,0,0,0,0,0,0,0,0,0,0,0,0,0,0,0,0,0,0,0,0,0,0,0,0,0,0,0,0,0,0,0,0,0,0,-2.1184,-2.1184,0,-2.1142,-2.1141,-2.1141,-2.1076,-2.1075,-2.1074,-2.1073,-2.1029,-2.1029,-2.1029,0,0,0,0,0,0,0,0,0,0,0,0,0,-2.1212,-2.1212,-2.1184,-2.1184,-2.1183,-2.1142,-2.1141,-2.114,-2.1076,-2.1075,-2.1074,-2.1072,-2.1029,-2.1029,-2.1029,0,0,0,0,0,0,0,0,0,0,0,0,0,-2.1188,-2.1212,-2.1185,-2.1146,-2.1143,-2.1142,-2.1141,-2.114,-2.1077,-2.1075,-2.1073,-2.1072,-2.1029,-2.1029,-2.1029,-2.1062,0,0,-2.1028,-2.1028,0,0,0,0,0,0,0,0,-2.1189,-2.1187,-2.1153,-2.1149,-2.1145,-2.1112,-2.1135,-2.1114,-2.1077,-2.1102,-2.1073,-2.1071,-2.1058,-2.1055,-2.1051,-2.106,-2.1058,-2.1028,-2.1028,-2.1028,-2.1028,0,0,0,0,0,0,0,-2.1191,-2.1188,-2.1167,-2.1152,-2.1147,-2.1132,-2.1127,-2.113,-2.109,-2.1099,-2.1095,-2.1091,-2.1056,-2.1051,-2.105,-2.1057,-2.1028,-2.1028,-2.1028,-2.1028,-2.1092,-2.1094,0,0,0,0,0,0,-2.1198,-2.119,-2.1169,-2.1166,-2.1163,-2.1133,-2.1127,-2.1125,-2.109,-2.1083,-2.1092,-2.1088,-2.1053,-2.105,-2.1048,-2.1085,-2.1028,-2.1028,-2.1028,-2.109,-2.1093,-2.1095,0,0,0,0,0,0,-2.1199,-2.1197,-2.1171,-2.1177,-2.1172,-2.1134,-2.1132,-2.1125,-2.112,-2.1084,-2.1077,-2.1095,-2.1051,-2.1048,-2.1059,-2.1083,-2.1028,-2.1028,-2.1088,-2.1091,-2.1094,-2.1159,0,0,0,0,0,0,-2.12,-2.1198,-2.1209,-2.1178,-2.1172,-2.1182,-2.1134,-2.1125,-2.112,-2.1114,-2.1085,-2.1079,-2.105,-2.106,-2.1059,-2.1081,-2.1027,-2.1086,-2.1089,-2.1093,-2.1155,-2.1164,-2.1172,0,0,0,0,0,-2.1201,-2.1229,-2.121,-2.1208,-2.1186,-2.1184,-2.1181,-2.1147,-2.1122,-2.1134,-2.1111,-2.1079,-2.108,-2.1061,-2.106,-2.1083,-2.1084,-2.1088,-2.1092,-2.1151,-2.1162,-2.1172,0,0,0,0,0,0,-2.1264,-2.1224,-2.1203,-2.1221,-2.1207,-2.1173,-2.1186,-2.1159,-2.1151,-2.1146,-2.1104,-2.1098,-2.1115,-2.11,-2.1079,-2.1114,-2.1078,-2.1082,-2.1123,-2.1133,-2.1141,-2.1144,-2.1027,0,0,0,0,0,-2.128,-2.1282,-2.1247,-2.1266,-2.126,-2.1225,-2.1223,-2.1198,-2.1181,-2.1174,-2.1152,-2.1137,-2.1134,-2.1132,-2.1127,-2.1153,-2.1146,-2.1168,-2.1176,-2.1183,-2.1187,-2.1201,-2.1211,-2.1108,-2.1108,-2.1108,0,0,-2.1313,-2.1292,-2.1295,-2.1278,-2.1264,-2.1267,-2.122,-2.1224,-2.1226,-2.1175,-2.1184,-2.1168,-2.1148,-2.1167,-2.1174,-2.1155,-2.1215,-2.1189,-2.1195,-2.1195,-2.1206,-2.1216,-2.1225,-2.1111,-2.111,-2.111,0,0,-2.1375,-2.1358,-2.1374,-2.1361,-2.134,-2.1316,-2.132,-2.1291,-2.1278,-2.1287,-2.1249,-2.1251,-2.1246,-2.1234,-2.1228,-2.1288,-2.1258,-2.1287,-2.1331,-2.1345,-2.1353,-2.136,-2.1382,-2.139,-2.1291,-2.1291,-2.1291,0,-2.1418,-2.1421,-2.1385,-2.1392,-2.1387,-2.1341,-2.1356,-2.1346,-2.1324,-2.1322,-2.1301,-2.1295,-2.1279,-2.1295,-2.131,-2.1305,-2.1309,-2.129,-2.1355,-2.1361,-2.1367,-2.1388,-2.1396,-2.1295,-2.1295,-2.1294,-2.1294,0,-2.1476,-2.1479,-2.1493,-2.1475,-2.1471,-2.1482,-2.1448,-2.1449,-2.1425,-2.1405,-2.1415,-2.1394,-2.1385,-2.1387,-2.1363,-2.14,-2.1389,-2.1362,-2.1325,-2.1381,-2.14,-2.1408,-2.13,-2.1299,-2.1298,-2.1297,0,0,-2.1575,-2.1537,-2.1543,-2.1535,-2.151,-2.1511,-2.1521,-2.1512,-2.1514,-2.1502,-2.151,-2.1508,-2.1483,-2.1476,-2.1451,-2.1463,-2.1513,-2.1434,-2.1433,-2.145,-2.1554,-2.1574,-2.1584,-2.1494,-2.1495,-2.1496,-2.1556,0,-2.1632,-2.1646,-2.1615,-2.1638,-2.164,-2.1598,-2.1607,-2.1593,-2.1574,-2.1574,-2.1554,-2.1553,-2.152,-2.1516,-2.1526,-2.1505,-2.1533,-2.15,-2.1502,-2.1502,-2.1508,-2.1594,-2.1615,-2.1672,-2.1563,-2.1564,-2.1565,0,-2.1699,-2.1691,-2.1714,-2.1689,-2.1689,-2.1698,-2.1688,-2.1688,-2.1672,-2.1658,-2.1651,-2.1622,-2.1631,-2.1596,-2.1608,-2.1587,-2.1585,-2.1575,-2.1577,-2.1576,-2.1537,-2.1595,-2.1689,-2.1698,-2.1576,-2.1575,-2.1574,0,-2.177,-2.1765,-2.1778,-2.1772,-2.1743,-2.175,-2.1738,-2.172,-2.1718,-2.171,-2.1708,-2.1701,-2.1697,-2.1693,-2.1664,-2.1641,-2.168,-2.1642,-2.1669,-2.167,-2.1679,-2.1679,-2.1775,-2.1679,-2.1678,-2.1678,-2.1678,0,-2.1837,-2.1853,-2.181,-2.1818,-2.1835,-2.18,-2.1818,-2.1802,-2.1787,-2.1792,-2.1755,-2.176,-2.1721,-2.1723,-2.17,-2.1715,-2.1713,-2.1702,-2.1696,-2.1706,-2.1707,-2.1704,-2.17,-2.168,-2.168,-2.1679,-2.1679,0,-2.1918,-2.189,-2.1902,-2.1874,-2.1867,-2.1881,-2.1857,-2.1864,-2.1844,-2.1851,-2.1851,-2.1819,-2.182,-2.179,-2.1784,-2.1769,-2.1794,-2.178,-2.1799,-2.1795,-2.1824,-2.1822,-2.1921,-2.1933,-2.1829,-2.183,-2.1831,0,-2.1963,-2.1974,-2.1948,-2.1949,-2.1939,-2.1941,-2.1938,-2.1904,-2.1903,-2.1887,-2.1896,-2.1894,-2.189,-2.1892,-2.1869,-2.1865,-2.1851,-2.1886,-2.185,-2.186,-2.1853,-2.1852,-2.1854,-2.1894,-2.1895,-2.1896,-2.1897,0,-2.2045,-2.2031,-2.2029,-2.2022,-2.202,-2.2013,-2.2004,-2.2007,-2.197,-2.1971,-2.1971,-2.1969,-2.1963,-2.1962,-2.1953,-2.1942,-2.1914,-2.1909,-2.1915,-2.1925,-2.1936,-2.1931,-2.182,-2.1907,-2.1906,-2.1905,-2.1904,-2.1904,-2.211,-2.2118,-2.2102,-2.2101,-2.2091,-2.2083,-2.2089,-2.207,-2.207,-2.2063,-2.2043,-2.2047,-2.2032,-2.2018,-2.2009,-2.2012,-2.1995,-2.2004,-2.2006,-2.2009,-2.2014,-2.1936,-2.2011,-2.201,-2.201,-2.201,-2.201,0,-2.219,-2.2178,-2.2178,-2.2167,-2.2166,-2.214,-2.213,-2.2131,-2.2135,-2.2123,-2.2121,-2.2122,-2.2121,-2.2098,-2.2094,-2.2101,-2.2089,-2.2102,-2.2101,-2.2099,-2.203,-2.2025,-2.2112,-2.2112,-2.2112,-2.2112,-2.2112,-2.2112,-2.2233,-2.2246,-2.2231,-2.224,-2.2227,-2.2231,-2.2227,-2.2221,-2.2211,-2.2214,-2.2213,-2.2199,-2.2183,-2.2178,-2.2176,-2.217,-2.217,-2.2188,-2.2177,-2.2113,-2.2103,-2.2094,-2.2089,-2.2188,-2.2188,-2.2246,-2.2246,-2.2247]},{"header":{"parameterUnit":"m.s-1","parameterCategory":1,"la1":30.2991,"la2":30.254,"lo1":-89.0895,"lo2":-89.0444,"dy":0.0017,"dx":0.0017,"nx":28,"ny":28,"refTime":"2023-08-14T21:00:00:Z","depth":0,"parameterNumber":3,"parameterNumberName":"V-component_of_WINDS"},"data":[0,0,0,0,0,0,0,0,0,0,0,0,0,0,0,0,0,0,0,0,0,0,0,0,0,0,0,0,0,0,0,0,0,0,0,0,0,0,0,0,0,0,0,0,0,0,0,0,0,0,0,0,0,0,0,0,0,0,-3.819,-3.8191,0,-3.8226,-3.8226,-3.8226,-3.8198,-3.8197,-3.8196,-3.8195,-3.8226,-3.8228,-3.823,0,0,0,0,0,0,0,0,0,0,0,0,0,-3.8094,-3.8096,-3.819,-3.8191,-3.8191,-3.8226,-3.8226,-3.8226,-3.8198,-3.8197,-3.8195,-3.8194,-3.8225,-3.8228,-3.823,0,0,0,0,0,0,0,0,0,0,0,0,0,-3.8133,-3.8097,-3.819,-3.8181,-3.8181,-3.8225,-3.8226,-3.8227,-3.8199,-3.8197,-3.8195,-3.8193,-3.8225,-3.8227,-3.823,-3.8284,0,0,-3.8239,-3.824,0,0,0,0,0,0,0,0,-3.8131,-3.8137,-3.8182,-3.8182,-3.8182,-3.8206,-3.8204,-3.8246,-3.8199,-3.8192,-3.8195,-3.8192,-3.822,-3.8224,-3.8234,-3.8285,-3.8287,-3.8239,-3.8241,-3.8242,-3.8243,0,0,0,0,0,0,0,-3.8128,-3.8135,-3.8204,-3.8183,-3.8183,-3.8174,-3.8178,-3.8211,-3.8215,-3.8192,-3.819,-3.8195,-3.822,-3.8231,-3.8234,-3.8287,-3.8239,-3.8242,-3.8244,-3.8245,-3.8385,-3.8387,0,0,0,0,0,0,-3.8127,-3.8133,-3.8203,-3.8205,-3.8152,-3.8177,-3.8181,-3.82,-3.8215,-3.8216,-3.8197,-3.8194,-3.8227,-3.8231,-3.8235,-3.83,-3.8242,-3.8245,-3.8247,-3.8383,-3.8385,-3.8388,0,0,0,0,0,0,-3.8125,-3.8134,-3.8202,-3.8169,-3.8177,-3.8181,-3.8202,-3.8201,-3.8213,-3.8218,-3.8218,-3.8208,-3.8226,-3.8231,-3.8273,-3.83,-3.8246,-3.8249,-3.8381,-3.8384,-3.8386,-3.8429,0,0,0,0,0,0,-3.8123,-3.8133,-3.8155,-3.8169,-3.8179,-3.8239,-3.8203,-3.8203,-3.8218,-3.8215,-3.8229,-3.8229,-3.8225,-3.8268,-3.8275,-3.8303,-3.8251,-3.8378,-3.8382,-3.8386,-3.8425,-3.8433,-3.8439,0,0,0,0,0,-3.8119,-3.8164,-3.8156,-3.8164,-3.8206,-3.8241,-3.8246,-3.8241,-3.8221,-3.8242,-3.8245,-3.8229,-3.8296,-3.8273,-3.8281,-3.831,-3.8376,-3.8381,-3.8385,-3.8421,-3.8431,-3.8439,0,0,0,0,0,0,-3.815,-3.8166,-3.8157,-3.8208,-3.8224,-3.8236,-3.8262,-3.8252,-3.8272,-3.8268,-3.8259,-3.8263,-3.8307,-3.8312,-3.8286,-3.8363,-3.8333,-3.8339,-3.8358,-3.8367,-3.8374,-3.8372,-3.8254,0,0,0,0,0,-3.8163,-3.8192,-3.8203,-3.8247,-3.8256,-3.8258,-3.8273,-3.8268,-3.8284,-3.829,-3.8296,-3.8311,-3.8335,-3.8351,-3.8374,-3.8425,-3.8428,-3.8449,-3.8457,-3.8463,-3.8468,-3.8496,-3.8506,-3.8402,-3.8402,-3.8402,0,0,-3.8189,-3.8202,-3.822,-3.8254,-3.8265,-3.8295,-3.8264,-3.8295,-3.8317,-3.8294,-3.8334,-3.834,-3.8355,-3.8402,-3.8423,-3.8408,-3.8498,-3.8468,-3.8473,-3.8475,-3.8502,-3.8512,-3.852,-3.8405,-3.8405,-3.8404,0,0,-3.8253,-3.8265,-3.8303,-3.8316,-3.8335,-3.8337,-3.8346,-3.8361,-3.8364,-3.8405,-3.8388,-3.8413,-3.8455,-3.8467,-3.8478,-3.8548,-3.8533,-3.8555,-3.8593,-3.8621,-3.8629,-3.8636,-3.8661,-3.8671,-3.8561,-3.8561,-3.8561,0,-3.8283,-3.8328,-3.8324,-3.8358,-3.8373,-3.8356,-3.8394,-3.8406,-3.8431,-3.8441,-3.8424,-3.8478,-3.8487,-3.8536,-3.8554,-3.8563,-3.8573,-3.8553,-3.8629,-3.8636,-3.8642,-3.8666,-3.8676,-3.8563,-3.8563,-3.8563,-3.8562,0,-3.8364,-3.8395,-3.8424,-3.8451,-3.8469,-3.8504,-3.8505,-3.8524,-3.8517,-3.852,-3.8562,-3.8572,-3.8597,-3.8608,-3.8602,-3.8657,-3.8648,-3.863,-3.86,-3.8655,-3.8677,-3.8686,-3.8567,-3.8566,-3.8565,-3.8565,0,0,-3.8447,-3.8472,-3.8483,-3.8495,-3.8515,-3.8539,-3.8574,-3.86,-3.8616,-3.8634,-3.8662,-3.8699,-3.8683,-3.8697,-3.8691,-3.8715,-3.877,-3.8695,-3.8695,-3.8709,-3.8833,-3.8846,-3.8857,-3.8761,-3.8763,-3.8764,-3.8832,0,-3.8511,-3.8574,-3.8572,-3.863,-3.8659,-3.8644,-3.8674,-3.8689,-3.8693,-3.8717,-3.872,-3.8747,-3.8723,-3.8731,-3.8755,-3.8759,-3.8795,-3.8754,-3.8787,-3.8788,-3.8784,-3.8868,-3.8883,-3.8946,-3.884,-3.8842,-3.8843,0,-3.8595,-3.8618,-3.868,-3.8697,-3.8709,-3.8737,-3.8761,-3.8785,-3.8801,-3.8802,-3.8818,-3.8809,-3.8843,-3.8812,-3.8859,-3.8831,-3.8844,-3.8848,-3.885,-3.8853,-3.8819,-3.8874,-3.8966,-3.8975,-3.8856,-3.8855,-3.8854,0,-3.865,-3.8696,-3.874,-3.875,-3.8771,-3.8791,-3.88,-3.8815,-3.8832,-3.8852,-3.8863,-3.8886,-3.8899,-3.8918,-3.8915,-3.8893,-3.8963,-3.8931,-3.8964,-3.8964,-3.8979,-3.8978,-3.9075,-3.8987,-3.8987,-3.8987,-3.8987,0,-3.8723,-3.8761,-3.8765,-3.8791,-3.8834,-3.883,-3.8872,-3.8879,-3.8893,-3.8919,-3.8906,-3.8931,-3.8926,-3.8951,-3.8949,-3.8988,-3.8994,-3.8995,-3.8994,-3.8996,-3.8996,-3.9005,-3.9,-3.899,-3.8989,-3.8989,-3.8988,0,-3.8791,-3.8795,-3.8841,-3.8858,-3.8863,-3.8894,-3.8907,-3.8932,-3.8935,-3.8969,-3.8977,-3.8981,-3.901,-3.9009,-3.904,-3.9039,-3.9088,-3.9081,-3.9083,-3.9082,-3.9114,-3.9111,-3.922,-3.9234,-3.9137,-3.9138,-3.9139,0,-3.8838,-3.8867,-3.8888,-3.8906,-3.8917,-3.8946,-3.8963,-3.8961,-3.8979,-3.9001,-3.9023,-3.9051,-3.9073,-3.9119,-3.9124,-3.9148,-3.9142,-3.9179,-3.9146,-3.9148,-3.9143,-3.9142,-3.9145,-3.9185,-3.9186,-3.9187,-3.9188,0,-3.8919,-3.892,-3.8947,-3.8975,-3.8996,-3.9017,-3.9036,-3.9051,-3.9051,-3.9072,-3.9102,-3.9119,-3.9153,-3.918,-3.9204,-3.9212,-3.92,-3.9198,-3.9207,-3.921,-3.921,-3.9211,-3.9101,-3.9196,-3.9195,-3.9194,-3.9194,-3.9194,-3.8978,-3.9004,-3.9024,-3.9054,-3.9069,-3.9087,-3.9112,-3.9119,-3.9145,-3.9173,-3.917,-3.9203,-3.9219,-3.925,-3.926,-3.9286,-3.9273,-3.9285,-3.9288,-3.9292,-3.9296,-3.9206,-3.929,-3.9289,-3.9289,-3.9289,-3.9289,0,-3.906,-3.9072,-3.91,-3.9129,-3.9152,-3.9141,-3.9162,-3.9182,-3.9212,-3.9229,-3.9252,-3.9287,-3.9314,-3.9321,-3.9347,-3.9366,-3.9361,-3.9373,-3.9371,-3.9374,-3.9306,-3.9296,-3.9376,-3.9376,-3.9376,-3.9376,-3.9376,-3.9376,-3.9105,-3.9149,-3.9153,-3.9203,-3.9214,-3.9249,-3.9262,-3.9279,-3.9293,-3.9333,-3.9356,-3.9362,-3.9375,-3.9402,-3.9426,-3.9427,-3.9437,-3.9451,-3.9451,-3.9387,-3.9378,-3.937,-3.936,-3.9453,-3.9454,-3.9516,-3.9517,-3.9517]}]]